Miscellaneous Local Product
Issued by NWS Hastings, NE

Home | Current Version | Previous Version | Graphics & Text | Print | Product List | Glossary On
Versions: 1 2 3 4 5 6 7 8 9 10 11 12 13 14 15 16 17 18 19 20 21 22 23 24 25 26 27 28 29 30 31 32 33 34 35 36 37 38 39 40 41 42 43 44 45 46 47 48 49 50
000
AXUS43 KGID 202102
MISGRI

GID CWA HOURLY WEATHER ROUNDUP
NATIONAL WEATHER SERVICE HASTINGS NE
400 PM CDT WED SEP 20 2017

NOTE: "FAIR" INDICATES FEW OR NO CLOUDS BELOW 12,000 FEET WITH NO
SIGNIFICANT WEATHER AND/OR OBSTRUCTIONS TO VISIBILITY.

...SOUTH CENTRAL NEBRASKA...

CITY           SKY/WX    TMP DP  RH WIND       PRES   REMARKS
GRAND ISLAND   SUNNY     78  40  25 W3        29.89S
HASTINGS       SUNNY     79  38  22 NE6       29.89S
KEARNEY        SUNNY     77  38  24 N6        29.89F
ORD            SUNNY     76  41  28 E5        29.85F
YORK           SUNNY     77  41  27 NE6       29.88R
AURORA         SUNNY     77  38  25 CALM      29.88S
LEXINGTON      SUNNY     77  33  20 CALM      29.88F
HOLDREGE       SUNNY     77  36  22 E5        29.89F
HEBRON         SUNNY     83  48  28 N9        29.84S

...NEBRASKA PANHANDLE...

CITY           SKY/WX    TMP DP  RH WIND       PRES   REMARKS
CHADRON        SUNNY     77  26  15 SW21G31   29.78F
ALLIANCE       SUNNY     71  34  25 S14G24    29.86F
SCOTTSBLUFF    SUNNY     76  36  23 S15       29.83F
SIDNEY         SUNNY     75  29  18 S13G29    29.89F

...WESTERN AND NORTH CENTRAL NEBRASKA...

CITY           SKY/WX    TMP DP  RH WIND       PRES   REMARKS
VALENTINE      SUNNY     76  26  15 SW9G23    29.84F
AINSWORTH      SUNNY     73  33  22 SW6G16    29.85F
ONEILL         SUNNY     74  42  30 SW6       29.87F
BROKEN BOW     SUNNY     77  37  23 E7        29.87F
IMPERIAL       SUNNY     77  24  14 VRB6      29.90F
NORTH PLATTE   SUNNY     76  33  21 NE3       29.88F
MCCOOK         SUNNY     79  33  19 S7        29.88F

...EASTERN NEBRASKA...

CITY           SKY/WX    TMP DP  RH WIND       PRES   REMARKS
NORFOLK        SUNNY     75  40  28 VRB3      29.85F
SO SIOUX CITY  SUNNY     76  51  41 NE5       29.86F
TEKAMAH        SUNNY     78  50  37 N12       29.85S
COLUMBUS       SUNNY     78  42  27 VRB3      29.87F
ALBION         SUNNY     76  46  34 CALM      29.87F
OMAHA EPPLEY   SUNNY     81  53  37 N12       29.83S
OFFUTT AFB     SUNNY     80  55  42 N9        29.83R
MILLARD        SUNNY     81  55  40 N6        29.84S
LINCOLN        SUNNY     81  51  35 N12       29.85S
NEBRASKA CITY  SUNNY     81  59  48 N8G16     29.83R
BEATRICE       SUNNY     83  56  38 NE10      29.83S
FALLS CITY     PTSUNNY   84  64  50 N10       29.79S

...NORTHERN KANSAS...

CITY           SKY/WX    TMP DP  RH WIND       PRES   REMARKS
GOODLAND       SUNNY     77  30  17 SE12G21   29.91F
HILL CITY      SUNNY     82  34  17 E6        29.88F
NORTON         CLEAR     81  23  12 E7        29.87F
PHILLIPSBURG   SUNNY     84  28  13 N8        29.87F
SMITH CENTER   SUNNY     81  43  26 NE8       29.86F
HAYS           SUNNY     85  38  18 NE10      29.84F
RUSSELL        SUNNY     87  42  20 NE14G23   29.82F
CONCORDIA      SUNNY     83  56  39 NE9       29.82F
SALINA         SUNNY     89  56  32 N9        29.81S
TOPEKA         MOSUNNY   90  70  51 S12       29.77F HX  95



USA.gov is the U.S. government's official web portal to all federal, state and local government web resources and services.